| time (UTC) | temp F | wind direction | speed knots | gust knots | rain 1hr in | rain 24hr in | rain mn in | humidity % | barometer mb |
| 20260902021715 | 65 | 199 | 7.8 | 7.8 | 0.00 | 0.00 | 0.00 | 78 | 1009.2 |
| 20260902021209 | 65 | 177 | 12.2 | 14.8 | 0.00 | 0.00 | 0.00 | 77 | 1009.1 |
| 20260902020706 | 65 | 181 | 8.7 | 11.3 | 0.00 | 0.00 | 0.00 | 78 | 1009.5 |
| 20260902020202 | 65 | 174 | 2.6 | 4.3 | 0.00 | 0.00 | 0.00 | 78 | 1009.2 |
| 20260902015657 | 65 | 193 | 6.1 | 7.8 | 0.00 | 0.00 | 0.00 | 77 | 1009.2 |
| 20260902015153 | 65 | 187 | 10.4 | 12.2 | 0.00 | 0.00 | 0.00 | 77 | 1009.3 |
| 20260902014649 | 65 | 186 | 4.3 | 6.1 | 0.00 | 0.00 | 0.00 | 78 | 1009.1 |
| 20260902014144 | 65 | 154 | 9.6 | 13.0 | 0.00 | 0.00 | 0.00 | 78 | 1009.2 |
| 20260902013643 | 65 | 232 | 8.7 | 11.3 | 0.00 | 0.00 | 0.00 | 78 | 1009.2 |
| 20260902013139 | 66 | 207 | 7.0 | 8.7 | 0.00 | 0.00 | 0.00 | 77 | 1009.3 |
| 20260902012635 | 66 | 199 | 6.1 | 9.6 | 0.00 | 0.00 | 0.00 | 77 | 1009.2 |
| 20260902012130 | 66 | 183 | 9.6 | 12.2 | 0.00 | 0.00 | 0.00 | 77 | 1009.2 |
| 20260902011626 | 66 | 170 | 7.8 | 8.7 | 0.00 | 0.00 | 0.00 | 77 | 1009.2 |
| 20260902011126 | 66 | 210 | 7.8 | 12.2 | 0.00 | 0.00 | 0.00 | 77 | 1009.5 |
| 20260902010625 | 66 | 145 | 12.2 | 14.8 | 0.00 | 0.00 | 0.00 | 76 | 1009.4 |
| 20260902010121 | 66 | 203 | 6.1 | 7.8 | 0.00 | 0.00 | 0.00 | 75 | 1009.3 |
| 20260902005619 | 66 | 221 | 6.1 | 8.7 | 0.00 | 0.00 | 0.00 | 75 | 1009.2 |
| 20260902005115 | 66 | 208 | 7.0 | 9.6 | 0.00 | 0.00 | 0.00 | 76 | 1009.1 |
| 20260902004614 | 67 | 175 | 7.0 | 9.6 | 0.00 | 0.00 | 0.00 | 75 | 1009.1 |
| 20260902004109 | 67 | 221 | 6.1 | 7.0 | 0.00 | 0.00 | 0.00 | 75 | 1009.4 |
| 20260902003604 | 68 | 167 | 9.6 | 11.3 | 0.00 | 0.00 | 0.00 | 73 | 1009.3 |
| 20260902003100 | 68 | 171 | 5.2 | 6.1 | 0.00 | 0.00 | 0.00 | 72 | 1009.3 |
| 20260902002555 | 68 | 188 | 6.1 | 7.8 | 0.00 | 0.00 | 0.00 | 73 | 1009.2 |
| 20260902002050 | 67 | 199 | 6.1 | 7.8 | 0.00 | 0.00 | 0.00 | 73 | 1009.4 |
| 20260902001545 | 67 | 195 | 7.8 | 9.6 | 0.00 | 0.00 | 0.00 | 74 | 1009.1 |
| 20260902001040 | 67 | 206 | 7.0 | 7.8 | 0.00 | 0.00 | 0.00 | 74 | 1009.3 |
| 20260902000534 | 67 | 190 | 9.6 | 12.2 | 0.00 | 0.00 | 0.00 | 74 | 1009.1 |
| 20260902000030 | 68 | 251 | 6.1 | 8.7 | 0.00 | 0.00 | 0.00 | 73 | 1009.2 |
| 20260901235524 | 68 | 220 | 7.8 | 8.7 | 0.00 | 0.00 | 0.00 | 72 | 1009.2 |
| 20260901235020 | 67 | 180 | 10.4 | 13.0 | 0.00 | 0.00 | 0.00 | 73 | 1009.4 |
| 20260901234518 | 67 | 189 | 6.1 | 8.7 | 0.00 | 0.00 | 0.00 | 73 | 1009.3 |
| 20260901234014 | 68 | 210 | 8.7 | 8.7 | 0.00 | 0.00 | 0.00 | 73 | 1009.2 |
| 20260901233509 | 68 | 235 | 1.7 | 2.6 | 0.00 | 0.00 | 0.00 | 72 | 1009.2 |
| 20260901233005 | 67 | 172 | 7.0 | 12.2 | 0.00 | 0.00 | 0.00 | 73 | 1009.3 |
| 20260901232500 | 67 | 201 | 4.3 | 5.2 | 0.00 | 0.00 | 0.00 | 73 | 1009.2 |
| 20260901231955 | 67 | 209 | 9.6 | 12.2 | 0.00 | 0.00 | 0.00 | 73 | 1009.2 |
| 20260901231451 | 68 | 163 | 6.1 | 8.7 | 0.00 | 0.00 | 0.00 | 73 | 1009.3 |
| 20260901230948 | 69 | 221 | 3.5 | 4.3 | 0.00 | 0.00 | 0.00 | 71 | 1009.3 |
| 20260901230447 | 69 | 241 | 4.3 | 7.8 | 0.00 | 0.00 | 0.00 | 70 | 1009.4 |
| 20260901225942 | 70 | 182 | 10.4 | 12.2 | 0.00 | 0.00 | 0.00 | 69 | 1009.2 |
| 20260901225442 | 69 | 229 | 9.6 | 12.2 | 0.00 | 0.00 | 0.00 | 70 | 1009.3 |
| 20260901224937 | 69 | 221 | 9.6 | 11.3 | 0.00 | 0.00 | 0.00 | 71 | 1009.3 |
| 20260901224433 | 67 | 204 | 6.1 | 7.8 | 0.00 | 0.00 | 0.00 | 72 | 1009.3 |
| 20260901223929 | 68 | 198 | 5.2 | 7.8 | 0.00 | 0.00 | 0.00 | 71 | 1009.3 |
| 20260901223424 | 70 | 193 | 13.9 | 17.4 | 0.00 | 0.00 | 0.00 | 68 | 1009.3 |
| 20260901222920 | 69 | 181 | 4.3 | 7.8 | 0.00 | 0.00 | 0.00 | 70 | 1009.0 |
| 20260901222416 | 69 | 208 | 2.6 | 5.2 | 0.00 | 0.00 | 0.00 | 70 | 1009.3 |
| 20260901221912 | 68 | 197 | 2.6 | 4.3 | 0.00 | 0.00 | 0.00 | 72 | 1009.3 |
| 20260901221408 | 67 | 218 | 5.2 | 7.0 | 0.00 | 0.00 | 0.00 | 74 | 1009.1 |
| 20260901220902 | 67 | 196 | 7.0 | 7.8 | 0.00 | 0.00 | 0.00 | 73 | 1009.4 |
| 20260901220401 | 67 | 186 | 6.1 | 7.8 | 0.00 | 0.00 | 0.00 | 72 | 1009.4 |
| 20260901215900 | 68 | 275 | 3.5 | 6.1 | 0.00 | 0.00 | 0.00 | 73 | 1009.4 |
| 20260901215359 | 68 | 212 | 4.3 | 7.8 | 0.00 | 0.00 | 0.00 | 72 | 1009.3 |
| 20260901214858 | 69 | 258 | 7.8 | 8.7 | 0.00 | 0.00 | 0.00 | 71 | 1009.6 |
| 20260901214357 | 69 | 210 | 4.3 | 6.1 | 0.00 | 0.00 | 0.00 | 69 | 1009.5 |
| 20260901213856 | 69 | 207 | 4.3 | 7.0 | 0.00 | 0.00 | 0.00 | 70 | 1009.5 |
| 20260901213352 | 69 | 200 | 5.2 | 6.1 | 0.00 | 0.00 | 0.00 | 70 | 1009.7 |
| 20260901212851 | 70 | 248 | 4.3 | 5.2 | 0.00 | 0.00 | 0.00 | 69 | 1009.5 |
| 20260901212347 | 69 | 222 | 4.3 | 5.2 | 0.00 | 0.00 | 0.00 | 69 | 1009.5 |
| 20260901211843 | 69 | 201 | 8.7 | 9.6 | 0.00 | 0.00 | 0.00 | 72 | 1009.6 |
| 20260901211338 | 68 | 217 | 6.1 | 7.8 | 0.00 | 0.00 | 0.00 | 73 | 1009.5 |
| 20260901210834 | 67 | 135 | 11.3 | 13.9 | 0.00 | 0.00 | 0.00 | 73 | 1009.5 |
| 20260901210329 | 68 | 216 | 6.1 | 7.8 | 0.00 | 0.00 | 0.00 | 72 | 1009.7 |
| 20260901205825 | 70 | 283 | 5.2 | 7.8 | 0.00 | 0.00 | 0.00 | 70 | 1009.7 |
| 20260901205320 | 69 | 222 | 9.6 | 12.2 | 0.00 | 0.00 | 0.00 | 71 | 1009.8 |
| 20260901204815 | 70 | 160 | 6.1 | 7.0 | 0.00 | 0.00 | 0.00 | 67 | 1009.5 |
| 20260901204312 | 70 | 228 | 4.3 | 5.2 | 0.00 | 0.00 | 0.00 | 69 | 1009.6 |
| 20260901203811 | 71 | 255 | 0.0 | 0.0 | 0.00 | 0.00 | 0.00 | 67 | 1009.6 |
| 20260901203306 | 71 | 176 | 2.6 | 4.3 | 0.00 | 0.00 | 0.00 | 68 | 1009.8 |
| 20260901202800 | 70 | 186 | 10.4 | 13.9 | 0.00 | 0.00 | 0.00 | 67 | 1009.6 |
| 20260901202255 | 71 | 261 | 3.5 | 4.3 | 0.00 | 0.00 | 0.00 | 68 | 1009.7 |
| 20260901201751 | 71 | 186 | 6.1 | 7.8 | 0.00 | 0.00 | 0.00 | 66 | 1009.7 |
| 20260901201250 | 70 | 217 | 6.1 | 8.7 | 0.00 | 0.00 | 0.00 | 68 | 1009.6 |
| 20260901200744 | 69 | 206 | 9.6 | 11.3 | 0.00 | 0.00 | 0.00 | 69 | 1009.8 |
| 20260901200240 | 69 | 221 | 6.1 | 8.7 | 0.00 | 0.00 | 0.00 | 71 | 1009.7 |
| 20260901195738 | 69 | 193 | 11.3 | 14.8 | 0.00 | 0.00 | 0.00 | 70 | 1009.9 |
| 20260901195232 | 70 | 253 | 4.3 | 6.1 | 0.00 | 0.00 | 0.00 | 69 | 1009.9 |
| 20260901194727 | 69 | 187 | 9.6 | 12.2 | 0.00 | 0.00 | 0.00 | 69 | 1009.9 |
| 20260901194217 | 68 | 212 | 5.2 | 8.7 | 0.00 | 0.00 | 0.00 | 71 | 1009.7 |
| 20260901193713 | 68 | 208 | 7.0 | 7.8 | 0.00 | 0.00 | 0.00 | 72 | 1009.7 |
| 20260901193212 | 68 | 185 | 10.4 | 13.0 | 0.00 | 0.00 | 0.00 | 71 | 1009.8 |
| 20260901192707 | 69 | 208 | 12.2 | 15.6 | 0.00 | 0.00 | 0.00 | 70 | 1010.1 |
| 20260901192202 | 68 | 178 | 3.5 | 4.3 | 0.00 | 0.00 | 0.00 | 72 | 1010.0 |
| 20260901191658 | 68 | 187 | 7.8 | 11.3 | 0.00 | 0.00 | 0.00 | 72 | 1010.1 |
| 20260901191154 | 67 | 186 | 9.6 | 11.3 | 0.00 | 0.00 | 0.00 | 74 | 1009.9 |
| 20260901190650 | 68 | 214 | 9.6 | 11.3 | 0.00 | 0.00 | 0.00 | 73 | 1010.1 |
| 20260901190148 | 68 | 223 | 5.2 | 6.1 | 0.00 | 0.00 | 0.00 | 73 | 1009.9 |
| 20260901185648 | 67 | 271 | 6.1 | 9.6 | 0.00 | 0.00 | 0.00 | 74 | 1009.9 |
| 20260901185145 | 67 | 201 | 4.3 | 7.0 | 0.00 | 0.00 | 0.00 | 75 | 1010.1 |
| 20260901184643 | 67 | 178 | 9.6 | 13.0 | 0.00 | 0.00 | 0.00 | 76 | 1010.4 |
| 20260901184137 | 66 | 244 | 3.5 | 5.2 | 0.00 | 0.00 | 0.00 | 76 | 1010.1 |
| 20260901183632 | 66 | 190 | 4.3 | 6.1 | 0.00 | 0.00 | 0.00 | 76 | 1009.9 |
| 20260901183127 | 65 | 231 | 3.5 | 6.1 | 0.00 | 0.00 | 0.00 | 79 | 1010.0 |
| 20260901182623 | 66 | 205 | 5.2 | 6.1 | 0.00 | 0.00 | 0.00 | 76 | 1010.1 |
| 20260901182122 | 65 | 242 | 2.6 | 4.3 | 0.00 | 0.00 | 0.00 | 77 | 1010.0 |
| 20260901181622 | 65 | 221 | 4.3 | 6.1 | 0.00 | 0.00 | 0.00 | 79 | 1010.1 |
| 20260901181122 | 64 | 242 | 0.9 | 1.7 | 0.00 | 0.00 | 0.00 | 80 | 1010.1 |
| 20260901180616 | 64 | 264 | 0.9 | 0.9 | 0.00 | 0.00 | 0.00 | 80 | 1010.1 |
| 20260901180110 | 64 | 225 | 2.6 | 4.3 | 0.00 | 0.00 | 0.00 | 81 | 1010.2 |
| 20260901175609 | 63 | 250 | 4.3 | 6.1 | 0.00 | 0.00 | 0.00 | 82 | 1009.8 |
| 20260901175104 | 63 | 243 | 5.2 | 7.8 | 0.00 | 0.00 | 0.00 | 82 | 1010.0 |
| 20260901174559 | 63 | 259 | 1.7 | 2.6 | 0.00 | 0.00 | 0.00 | 83 | 1009.9 |
| 20260901174055 | 63 | 180 | 6.1 | 7.8 | 0.00 | 0.00 | 0.00 | 82 | 1009.8 |
| 20260901173550 | 62 | 253 | 4.3 | 7.0 | 0.00 | 0.00 | 0.00 | 84 | 1009.9 |
| 20260901173046 | 62 | 191 | 3.5 | 4.3 | 0.00 | 0.00 | 0.00 | 85 | 1009.8 |
| 20260901172541 | 61 | 201 | 10.4 | 12.2 | 0.00 | 0.00 | 0.00 | 85 | 1009.9 |
| 20260901172039 | 61 | 196 | 10.4 | 12.2 | 0.00 | 0.00 | 0.00 | 86 | 1009.9 |
| 20260901171539 | 61 | 187 | 9.6 | 11.3 | 0.00 | 0.00 | 0.00 | 86 | 1010.0 |
| 20260901171038 | 61 | 193 | 5.2 | 6.1 | 0.00 | 0.00 | 0.00 | 86 | 1009.8 |
| 20260901170537 | 61 | 203 | 8.7 | 9.6 | 0.00 | 0.00 | 0.00 | 86 | 1009.8 |
| 20260901170033 | 60 | 181 | 5.2 | 6.1 | 0.00 | 0.00 | 0.00 | 87 | 1010.0 |
| 20260901165532 | 60 | 168 | 7.0 | 8.7 | 0.00 | 0.00 | 0.00 | 87 | 1010.0 |
| 20260901165028 | 60 | 167 | 6.1 | 7.8 | 0.00 | 0.00 | 0.00 | 88 | 1009.9 |
| 20260901164523 | 60 | 190 | 6.1 | 7.8 | 0.00 | 0.00 | 0.00 | 88 | 1009.9 |
| 20260901164018 | 60 | 203 | 10.4 | 12.2 | 0.00 | 0.00 | 0.00 | 88 | 1010.0 |
| 20260901163514 | 60 | 177 | 10.4 | 13.9 | 0.00 | 0.00 | 0.00 | 88 | 1010.0 |
| 20260901163012 | 60 | 139 | 4.3 | 5.2 | 0.00 | 0.00 | 0.00 | 88 | 1009.8 |
| 20260901162508 | 60 | 182 | 7.8 | 9.6 | 0.00 | 0.00 | 0.00 | 89 | 1009.9 |
| 20260901162007 | 60 | 159 | 7.0 | 7.0 | 0.00 | 0.00 | 0.00 | 89 | 1010.0 |
| 20260901161507 | 60 | 179 | 5.2 | 6.1 | 0.00 | 0.00 | 0.00 | 89 | 1010.0 |
| 20260901161001 | 59 | 174 | 4.3 | 5.2 | 0.00 | 0.00 | 0.00 | 90 | 1010.1 |
| 20260901160457 | 59 | 172 | 3.5 | 4.3 | 0.00 | 0.00 | 0.00 | 90 | 1010.3 |
| 20260901155956 | 59 | 181 | 8.7 | 9.6 | 0.00 | 0.00 | 0.00 | 90 | 1010.1 |
| 20260901155456 | 59 | 125 | 7.8 | 11.3 | 0.00 | 0.00 | 0.00 | 90 | 1009.9 |
| 20260901154952 | 59 | 180 | 3.5 | 5.2 | 0.00 | 0.00 | 0.00 | 90 | 1010.2 |
| 20260901154452 | 59 | 189 | 9.6 | 11.3 | 0.00 | 0.00 | 0.00 | 90 | 1010.1 |
| 20260901153947 | 59 | 189 | 3.5 | 5.2 | 0.00 | 0.00 | 0.00 | 91 | 1010.2 |
| 20260901153441 | 59 | 191 | 4.3 | 5.2 | 0.00 | 0.00 | 0.00 | 91 | 1010.3 |
| 20260901152940 | 59 | 212 | 1.7 | 1.7 | 0.00 | 0.00 | 0.00 | 91 | 1010.3 |
| 20260901152435 | 59 | 222 | 4.3 | 5.2 | 0.00 | 0.00 | 0.00 | 92 | 1010.1 |
| 20260901151935 | 59 | 228 | 2.6 | 2.6 | 0.00 | 0.00 | 0.00 | 92 | 1010.3 |
| 20260901151430 | 58 | 201 | 3.5 | 6.1 | 0.00 | 0.00 | 0.00 | 92 | 1010.3 |
| 20260901150929 | 58 | 190 | 4.3 | 5.2 | 0.00 | 0.00 | 0.00 | 93 | 1010.3 |
| 20260901150427 | 58 | 199 | 4.3 | 5.2 | 0.00 | 0.00 | 0.00 | 93 | 1010.3 |
| 20260901145924 | 58 | 214 | 5.2 | 6.1 | 0.00 | 0.00 | 0.00 | 94 | 1010.1 |
| 20260901145419 | 58 | 157 | 2.6 | 4.3 | 0.00 | 0.00 | 0.00 | 94 | 1010.1 |
| 20260901144914 | 58 | 183 | 3.5 | 4.3 | 0.00 | 0.00 | 0.00 | 94 | 1010.1 |
| 20260901144409 | 57 | 234 | 0.0 | 0.0 | 0.00 | 0.00 | 0.00 | 94 | 1010.0 |
| 20260901143905 | 57 | 220 | 0.0 | 0.0 | 0.00 | 0.00 | 0.00 | 94 | 1010.1 |
| 20260901143401 | 57 | 239 | 2.6 | 4.3 | 0.00 | 0.00 | 0.00 | 94 | 1010.0 |
| 20260901142857 | 57 | 262 | 0.9 | 0.9 | 0.00 | 0.00 | 0.00 | 95 | 1010.1 |
| 20260901142356 | 57 | 228 | 1.7 | 1.7 | 0.00 | 0.00 | 0.00 | 95 | 1010.1 |
| 20260901141851 | 57 | 261 | 2.6 | 2.6 | 0.00 | 0.00 | 0.00 | 95 | 1010.1 |
| 20260901141346 | 57 | 264 | 0.0 | 0.0 | 0.00 | 0.00 | 0.00 | 95 | 1009.9 |
| 20260901140845 | 57 | 249 | 6.1 | 7.8 | 0.00 | 0.00 | 0.00 | 95 | 1009.8 |
| 20260901140343 | 57 | 251 | 2.6 | 2.6 | 0.00 | 0.00 | 0.00 | 94 | 1009.8 |
| 20260901135838 | 57 | 270 | 0.9 | 2.6 | 0.00 | 0.00 | 0.00 | 94 | 1009.6 |
| 20260901135334 | 57 | 236 | 1.7 | 1.7 | 0.00 | 0.00 | 0.00 | 94 | 1010.0 |
| 20260901134829 | 57 | 247 | 1.7 | 2.6 | 0.00 | 0.00 | 0.00 | 94 | 1010.0 |
| 20260901134325 | 57 | 268 | 2.6 | 4.3 | 0.00 | 0.00 | 0.00 | 93 | 1009.9 |
| 20260901133819 | 57 | 281 | 8.7 | 11.3 | 0.00 | 0.00 | 0.00 | 92 | 1009.8 |
| 20260901133318 | 58 | 229 | 6.1 | 7.8 | 0.00 | 0.00 | 0.00 | 90 | 1009.8 |
| 20260901132817 | 58 | 267 | 2.6 | 4.3 | 0.00 | 0.00 | 0.00 | 88 | 1009.8 |
| 20260901132312 | 58 | 254 | 0.9 | 1.7 | 0.00 | 0.00 | 0.00 | 86 | 1009.6 |
| 20260901131806 | 58 | 268 | 0.9 | 0.9 | 0.00 | 0.00 | 0.00 | 86 | 1009.4 |
| 20260901131306 | 58 | 243 | 2.6 | 2.6 | 0.00 | 0.00 | 0.00 | 86 | 1009.4 |
| 20260901130800 | 59 | 280 | 0.0 | 0.0 | 0.00 | 0.00 | 0.00 | 86 | 1009.5 |
| 20260901130255 | 59 | 257 | 0.0 | 0.0 | 0.00 | 0.00 | 0.00 | 87 | 1009.4 |
| 20260901125752 | 58 | 268 | 0.0 | 0.0 | 0.00 | 0.00 | 0.00 | 88 | 1009.4 |
| 20260901125247 | 58 | 279 | 0.0 | 0.0 | 0.00 | 0.00 | 0.00 | 89 | 1009.4 |
| 20260901124742 | 58 | 308 | 0.0 | 0.0 | 0.00 | 0.00 | 0.00 | 89 | 1009.1 |
| 20260901124237 | 58 | 280 | 0.0 | 0.0 | 0.00 | 0.00 | 0.00 | 89 | 1009.2 |
| 20260901123736 | 58 | 291 | 0.0 | 0.0 | 0.00 | 0.00 | 0.00 | 90 | 1009.4 |
| 20260901123231 | 58 | 281 | 0.0 | 0.0 | 0.00 | 0.00 | 0.00 | 90 | 1009.3 |
| 20260901122730 | 57 | 279 | 0.0 | 0.0 | 0.00 | 0.00 | 0.00 | 90 | 1009.2 |
| 20260901122225 | 57 | 280 | 0.0 | 0.0 | 0.00 | 0.00 | 0.00 | 90 | 1009.3 |
| 20260901121719 | 57 | 279 | 0.0 | 0.0 | 0.00 | 0.00 | 0.00 | 90 | 1009.2 |
| 20260901121214 | 57 | 279 | 0.0 | 0.0 | 0.00 | 0.00 | 0.00 | 90 | 1009.0 |
| 20260901120714 | 57 | 289 | 0.0 | 0.0 | 0.00 | 0.00 | 0.00 | 90 | 1009.0 |
| 20260901120209 | 57 | 277 | 0.0 | 0.0 | 0.00 | 0.00 | 0.00 | 90 | 1009.0 |
| 20260901115704 | 57 | 281 | 0.0 | 0.0 | 0.00 | 0.00 | 0.00 | 90 | 1009.1 |
| 20260901115200 | 57 | 284 | 0.0 | 0.0 | 0.00 | 0.00 | 0.00 | 90 | 1009.0 |
| 20260901114657 | 56 | 280 | 0.0 | 0.0 | 0.00 | 0.00 | 0.00 | 91 | 1009.1 |
| 20260901114156 | 56 | 291 | 0.0 | 0.0 | 0.00 | 0.00 | 0.00 | 91 | 1008.9 |
| 20260901113655 | 56 | 285 | 0.0 | 0.0 | 0.00 | 0.00 | 0.00 | 91 | 1008.8 |
| 20260901113151 | 56 | 284 | 0.0 | 0.0 | 0.00 | 0.00 | 0.00 | 91 | 1009.0 |
| 20260901112644 | 56 | 292 | 0.0 | 0.0 | 0.00 | 0.00 | 0.00 | 90 | 1009.1 |
| 20260901112144 | 56 | 292 | 0.0 | 0.0 | 0.00 | 0.00 | 0.00 | 90 | 1009.0 |
| 20260901111644 | 56 | 292 | 0.0 | 0.0 | 0.00 | 0.00 | 0.00 | 90 | 1009.1 |
| 20260901111138 | 57 | 293 | 0.0 | 0.0 | 0.00 | 0.00 | 0.00 | 90 | 1009.0 |
| 20260901110633 | 57 | 279 | 0.0 | 0.0 | 0.00 | 0.00 | 0.00 | 89 | 1008.9 |
| 20260901110128 | 57 | 286 | 0.0 | 0.0 | 0.00 | 0.00 | 0.00 | 90 | 1009.0 |
| 20260901105625 | 57 | 290 | 0.0 | 0.0 | 0.00 | 0.00 | 0.00 | 90 | 1008.9 |
| 20260901105124 | 57 | 293 | 0.0 | 0.0 | 0.00 | 0.00 | 0.00 | 89 | 1008.8 |
| 20260901104620 | 57 | 290 | 0.0 | 0.0 | 0.00 | 0.00 | 0.00 | 89 | 1009.0 |
| 20260901104115 | 57 | 273 | 0.0 | 0.0 | 0.00 | 0.00 | 0.00 | 89 | 1009.0 |
| 20260901103609 | 57 | 286 | 0.0 | 0.0 | 0.00 | 0.00 | 0.00 | 89 | 1008.9 |
| 20260901103105 | 57 | 282 | 0.0 | 0.0 | 0.00 | 0.00 | 0.00 | 88 | 1009.0 |
| 20260901102604 | 57 | 283 | 0.0 | 0.0 | 0.00 | 0.00 | 0.00 | 88 | 1009.2 |
| 20260901102059 | 57 | 285 | 0.0 | 0.0 | 0.00 | 0.00 | 0.00 | 88 | 1009.1 |
| 20260901101555 | 57 | 279 | 0.0 | 0.0 | 0.00 | 0.00 | 0.00 | 87 | 1009.2 |
| 20260901101054 | 57 | 274 | 0.0 | 0.0 | 0.00 | 0.00 | 0.00 | 87 | 1008.9 |
| 20260901100548 | 57 | 283 | 0.0 | 0.0 | 0.00 | 0.00 | 0.00 | 88 | 1008.9 |
| 20260901100048 | 57 | 290 | 0.0 | 0.0 | 0.00 | 0.00 | 0.00 | 87 | 1008.7 |
| 20260901095546 | 57 | 293 | 0.0 | 0.0 | 0.00 | 0.00 | 0.00 | 87 | 1008.7 |
| 20260901095044 | 57 | 283 | 0.0 | 0.0 | 0.00 | 0.00 | 0.00 | 87 | 1008.6 |
| 20260901094540 | 58 | 279 | 0.0 | 0.0 | 0.00 | 0.00 | 0.00 | 86 | 1008.7 |
| 20260901094039 | 58 | 285 | 0.0 | 0.0 | 0.00 | 0.00 | 0.00 | 86 | 1008.5 |
| 20260901093534 | 58 | 288 | 0.0 | 0.0 | 0.00 | 0.00 | 0.00 | 86 | 1008.9 |
| 20260901093028 | 58 | 289 | 0.0 | 0.0 | 0.00 | 0.00 | 0.00 | 86 | 1008.6 |
| 20260901092525 | 58 | 289 | 0.0 | 0.0 | 0.00 | 0.00 | 0.00 | 86 | 1008.8 |
| 20260901092020 | 58 | 296 | 0.0 | 0.0 | 0.00 | 0.00 | 0.00 | 86 | 1008.5 |
| 20260901091515 | 58 | 294 | 0.0 | 0.0 | 0.00 | 0.00 | 0.00 | 86 | 1008.7 |
| 20260901091010 | 58 | 285 | 0.0 | 0.9 | 0.00 | 0.00 | 0.00 | 86 | 1008.8 |
| 20260901090509 | 58 | 285 | 0.0 | 0.9 | 0.00 | 0.00 | 0.00 | 86 | 1008.6 |
| 20260901090006 | 59 | 268 | 1.7 | 1.7 | 0.00 | 0.00 | 0.00 | 86 | 1008.7 |
| 20260901085501 | 59 | 285 | 0.0 | 0.0 | 0.00 | 0.00 | 0.00 | 85 | 1008.8 |
| 20260901084957 | 59 | 292 | 0.9 | 1.7 | 0.00 | 0.00 | 0.00 | 84 | 1008.7 |
| 20260901084452 | 60 | 292 | 1.7 | 1.7 | 0.00 | 0.00 | 0.00 | 83 | 1008.8 |
| 20260901083948 | 60 | 274 | 0.0 | 0.0 | 0.00 | 0.00 | 0.00 | 81 | 1008.6 |
| 20260901083443 | 60 | 294 | 0.0 | 0.0 | 0.00 | 0.00 | 0.00 | 77 | 1008.7 |
| 20260901082941 | 60 | 294 | 0.0 | 0.0 | 0.00 | 0.00 | 0.00 | 77 | 1008.6 |
| 20260901082436 | 60 | 294 | 0.0 | 0.0 | 0.00 | 0.00 | 0.00 | 77 | 1008.6 |
| 20260901081931 | 60 | 306 | 0.0 | 0.0 | 0.00 | 0.00 | 0.00 | 77 | 1008.7 |
| 20260901081426 | 60 | 308 | 0.0 | 0.9 | 0.00 | 0.00 | 0.00 | 77 | 1008.5 |
| 20260901080921 | 61 | 299 | 0.0 | 0.0 | 0.00 | 0.00 | 0.00 | 77 | 1008.6 |
| 20260901080415 | 61 | 330 | 0.0 | 0.0 | 0.00 | 0.00 | 0.00 | 77 | 1008.5 |
| 20260901075910 | 60 | 317 | 0.0 | 0.0 | 0.00 | 0.00 | 0.00 | 77 | 1008.5 |
| 20260901075405 | 61 | 308 | 0.0 | 0.0 | 0.00 | 0.00 | 0.00 | 77 | 1008.7 |
| 20260901074904 | 61 | 297 | 0.0 | 0.0 | 0.00 | 0.00 | 0.00 | 76 | 1008.3 |
| 20260901074359 | 61 | 295 | 0.0 | 0.0 | 0.00 | 0.00 | 0.00 | 75 | 1008.7 |
| 20260901073855 | 61 | 304 | 0.0 | 0.9 | 0.00 | 0.00 | 0.00 | 76 | 1008.4 |
| 20260901073350 | 61 | 313 | 0.0 | 0.0 | 0.00 | 0.00 | 0.00 | 75 | 1008.6 |
| 20260901072846 | 62 | 316 | 0.0 | 0.0 | 0.00 | 0.00 | 0.00 | 75 | 1008.6 |
| 20260901072346 | 62 | 317 | 0.0 | 0.0 | 0.00 | 0.00 | 0.00 | 75 | 1008.4 |
| 20260901071841 | 61 | 320 | 0.0 | 0.9 | 0.00 | 0.00 | 0.00 | 75 | 1008.4 |
| 20260901071339 | 61 | 294 | 0.0 | 0.0 | 0.00 | 0.00 | 0.00 | 76 | 1008.5 |
| 20260901070838 | 62 | 293 | 0.0 | 0.0 | 0.00 | 0.00 | 0.00 | 76 | 1008.7 |
| 20260901070335 | 61 | 297 | 0.0 | 0.0 | 0.00 | 0.00 | 0.00 | 77 | 1008.6 |
| 20260901065833 | 62 | 296 | 0.0 | 0.0 | 0.00 | 0.00 | 0.00 | 76 | 1008.5 |
| 20260901065329 | 62 | 305 | 0.0 | 0.0 | 0.00 | 0.00 | 0.00 | 76 | 1008.2 |
| 20260901064824 | 62 | 293 | 0.0 | 0.0 | 0.00 | 0.00 | 0.00 | 76 | 1008.5 |
| 20260901064321 | 63 | 295 | 0.0 | 0.0 | 0.00 | 0.00 | 0.00 | 75 | 1008.7 |
| 20260901063818 | 62 | 300 | 0.0 | 0.0 | 0.00 | 0.00 | 0.00 | 74 | 1008.5 |
| 20260901063314 | 63 | 293 | 0.0 | 0.0 | 0.00 | 0.00 | 0.00 | 74 | 1008.4 |
| 20260901062810 | 62 | 292 | 0.0 | 0.0 | 0.00 | 0.00 | 0.00 | 75 | 1008.5 |
| 20260901062309 | 63 | 309 | 0.0 | 0.0 | 0.00 | 0.00 | 0.00 | 75 | 1008.5 |
| 20260901061801 | 63 | 307 | 0.0 | 0.0 | 0.00 | 0.00 | 0.00 | 75 | 1008.7 |
| 20260901061301 | 63 | 308 | 0.0 | 0.0 | 0.00 | 0.00 | 0.00 | 74 | 1008.6 |
| 20260901060756 | 63 | 308 | 0.0 | 0.0 | 0.00 | 0.00 | 0.00 | 74 | 1008.5 |
| 20260901060252 | 63 | 308 | 0.0 | 0.0 | 0.00 | 0.00 | 0.00 | 74 | 1008.6 |
| 20260901055746 | 63 | 308 | 0.0 | 0.0 | 0.00 | 0.00 | 0.00 | 74 | 1008.4 |
| 20260901055243 | 64 | 322 | 0.0 | 0.0 | 0.00 | 0.00 | 0.00 | 74 | 1008.6 |
| 20260901054739 | 64 | 319 | 0.0 | 0.0 | 0.00 | 0.00 | 0.00 | 74 | 1008.5 |
| 20260901054236 | 64 | 298 | 0.0 | 0.0 | 0.00 | 0.00 | 0.00 | 74 | 1008.6 |
| 20260901053731 | 64 | 289 | 0.0 | 0.0 | 0.00 | 0.00 | 0.00 | 74 | 1008.7 |
| 20260901053226 | 64 | 312 | 0.0 | 0.0 | 0.00 | 0.00 | 0.00 | 73 | 1008.9 |
| 20260901052722 | 64 | 301 | 0.0 | 0.0 | 0.00 | 0.00 | 0.00 | 73 | 1008.9 |
| 20260901052218 | 64 | 343 | 0.0 | 0.0 | 0.00 | 0.00 | 0.00 | 74 | 1008.7 |
| 20260901051716 | 64 | 324 | 0.0 | 0.0 | 0.00 | 0.00 | 0.00 | 74 | 1008.6 |
| 20260901051211 | 64 | 296 | 0.0 | 0.0 | 0.00 | 0.00 | 0.00 | 73 | 1008.7 |
| 20260901050706 | 65 | 283 | 0.0 | 0.0 | 0.00 | 0.00 | 0.00 | 72 | 1008.7 |
| 20260901050201 | 65 | 270 | 0.0 | 0.0 | 0.00 | 0.00 | 0.00 | 73 | 1008.7 |
| 20260901045656 | 64 | 284 | 0.0 | 0.0 | 0.00 | 0.00 | 0.00 | 73 | 1008.9 |
| 20260901045151 | 64 | 302 | 0.0 | 0.0 | 0.00 | 0.00 | 0.00 | 73 | 1008.9 |
| 20260901044646 | 64 | 304 | 0.0 | 0.0 | 0.00 | 0.00 | 0.00 | 72 | 1008.7 |
| 20260901044143 | 64 | 300 | 0.0 | 0.0 | 0.00 | 0.00 | 0.00 | 72 | 1008.5 |
| 20260901043638 | 65 | 295 | 0.0 | 0.0 | 0.00 | 0.00 | 0.00 | 71 | 1008.7 |
| 20260901043134 | 65 | 293 | 0.0 | 0.0 | 0.00 | 0.00 | 0.00 | 71 | 1008.8 |
| 20260901042632 | 65 | 286 | 0.0 | 0.0 | 0.00 | 0.00 | 0.00 | 71 | 1008.6 |
| 20260901042128 | 65 | 289 | 0.0 | 0.0 | 0.00 | 0.00 | 0.00 | 71 | 1008.8 |
| 20260901041624 | 65 | 312 | 0.0 | 0.0 | 0.00 | 0.00 | 0.00 | 70 | 1008.6 |
| 20260901041119 | 65 | 321 | 0.0 | 0.0 | 0.00 | 0.00 | 0.00 | 70 | 1008.6 |
| 20260901040618 | 66 | 317 | 0.0 | 0.0 | 0.00 | 0.00 | 0.00 | 70 | 1008.5 |
| 20260901040112 | 66 | 323 | 0.9 | 1.7 | 0.00 | 0.00 | 0.00 | 69 | 1008.5 |
| 20260901035610 | 66 | 320 | 0.0 | 0.0 | 0.00 | 0.00 | 0.00 | 69 | 1008.5 |
| 20260901035109 | 66 | 308 | 0.0 | 0.0 | 0.00 | 0.00 | 0.00 | 69 | 1008.3 |
| 20260901034609 | 66 | 319 | 0.0 | 0.9 | 0.00 | 0.00 | 0.00 | 68 | 1008.5 |
| 20260901034103 | 66 | 15 | 2.6 | 4.3 | 0.00 | 0.00 | 0.00 | 68 | 1008.2 |
| 20260901033602 | 66 | 312 | 0.0 | 0.0 | 0.00 | 0.00 | 0.00 | 69 | 1008.5 |
| 20260901033057 | 66 | 323 | 2.6 | 5.2 | 0.00 | 0.00 | 0.00 | 69 | 1008.3 |
| 20260901032556 | 66 | 342 | 4.3 | 6.1 | 0.00 | 0.00 | 0.00 | 69 | 1008.3 |
| 20260901032051 | 66 | 346 | 3.5 | 4.3 | 0.00 | 0.00 | 0.00 | 69 | 1008.2 |
| 20260901031546 | 66 | 313 | 1.7 | 2.6 | 0.00 | 0.00 | 0.00 | 70 | 1008.3 |
| 20260901031043 | 66 | 306 | 0.9 | 1.7 | 0.00 | 0.00 | 0.00 | 70 | 1008.3 |
| 20260901030542 | 66 | 343 | 2.6 | 2.6 | 0.00 | 0.00 | 0.00 | 70 | 1008.2 |
| 20260901030037 | 66 | 302 | 0.9 | 0.9 | 0.00 | 0.00 | 0.00 | 70 | 1008.1 |
| 20260901025536 | 66 | 0 | 5.2 | 7.0 | 0.00 | 0.00 | 0.00 | 69 | 1008.1 |
| 20260901025031 | 66 | 315 | 2.6 | 4.3 | 0.00 | 0.00 | 0.00 | 69 | 1008.1 |
| 20260901024526 | 66 | 311 | 1.7 | 1.7 | 0.00 | 0.00 | 0.00 | 69 | 1008.3 |
| 20260901024025 | 67 | 320 | 4.3 | 5.2 | 0.00 | 0.00 | 0.00 | 69 | 1008.3 |
| 20260901023519 | 67 | 357 | 1.7 | 2.6 | 0.00 | 0.00 | 0.00 | 69 | 1008.0 |
| 20260901023014 | 67 | 313 | 3.5 | 5.2 | 0.00 | 0.00 | 0.00 | 68 | 1008.1 |
| 20260901022509 | 67 | 261 | 4.3 | 7.0 | 0.00 | 0.00 | 0.00 | 68 | 1008.2 |